Location: Arbon
(43.0005°N, 0.7472°E)
Time: 09:48:28
(UTC+00:00)

Vanguard 2 Rocket - Pass Details

Date: 02 December 2020
Orbit: 554 x 3325 km, 32.9° (Epoch: 21 January)

Event Time Altitude Azimuth Distance (km) Brightness Sun altitude
Rises 09:56:45 0° 266° (W) 7,271 11.3 20.2°
Reaches altitude 10° 10:01:45 10° 263° (W) 6,286 11.0 20.6°
Maximum altitude 10:21:03 58° 192° (SSW) 3,211 10.5 22.0°
Drops below altitude 10° 10:34:32 10° 118° (ESE) 4,559 11.3 22.9°
Sets 10:37:32 0° 114° (ESE) 5,243 11.4 23.0°
